This demonstration page uses our WeatherBlox Daily Observations layout. Learn more.

Left ArrowRight Arrow

41.55636, -103.73856

Hourly Observations for November 11, 2019

Temp ( °F °C ) Dew Point ( °F °C ) Humidity (%) Winds ( mph kmh ) Pressure ( in mb ) Visibility ( mi km ) Precip ( " mm )
12:58 am 00:58 Cloudy 21 -6.3 19 -7 95 95 NE 12 19 30.31 1027 10 16.0934 N/A
1:58 am 01:58 Cloudy 21 -6.2 20 -6.9 95 95 NNE 14 22 30.35 1028 10 16.0934 N/A
2:58 am 02:58 Cloudy with Light Snow Showers 20 -6.5 19 -7.2 95 95 NNE 17 28 30.34 1027 10 16.0934 N/A
3:58 am 03:58 Cloudy with Light Snow 18 -7.8 16 -9 91 91 NNE 16 26 30.42 1030 8 12.87472 N/A
4:58 am 04:58 Cloudy with Light Snow 16 -8.7 15 -9.7 93 93 NNE 14 22 30.43 1031 3 4.82802 N/A
5:58 am 05:58 Cloudy with Light Snow 15 -9.5 12 -10.9 90 90 NNE 13 20 30.48 1032 3 4.82802 N/A
6:58 am 06:58 Cloudy with Snow 14 -10.2 11 -11.4 91 91 NNE 15 24 30.5 1033 1 1.60934 N/A
7:58 am 07:58 Cloudy with Heavy Snow 12 -11.2 10 -12.5 90 90 NNE 10 17 30.53 1034 1 1.60934 N/A
8:58 am 08:58 Cloudy with Light Snow 10 -12.2 6 -14.3 85 85 NNE 15 24 30.59 1036 9 14.48406 N/A
9:58 am 09:58 Cloudy with Light Snow 9 -12.9 6 -14.7 87 87 NNE 9 15 30.67 1039 2.5 4.02335 N/A
10:58 am 10:58 Mostly Cloudy with Light Snow 8 -13.6 4 -15.4 86 86 NE 7 11 30.7 1040 10 16.0934 N/A
11:58 am 11:58 Mostly Cloudy 6 -14.7 2 -16.6 86 86 N 9 15 30.76 1042 10 16.0934 N/A
12:58 pm 12:58 Cloudy 7 -13.8 2 -16.7 79 79 N 9 15 30.79 1043 10 16.0934 N/A
1:58 pm 13:58 Sunny 2 -16.8 -3 -19.2 82 82 N 10 17 30.82 1044 10 16.0934 N/A
2:58 pm 14:58 Sunny 4 -15.3 -1 -18.5 77 77 NNW 7 11 30.82 1044 10 16.0934 N/A
3:58 pm 15:58 Sunny 7 -13.8 -1 -18.5 68 68 NNW 13 20 30.83 1044 10 16.0934 N/A
4:58 pm 16:58 Sunny 9 -12.8 -1 -18.1 65 65 NNW 10 17 30.83 1044 10 16.0934 N/A
5:58 pm 17:58 Sunny 10 -12 N/A 63 63 NW 9 15 30.82 1044 10 16.0934 N/A
6:58 pm 18:58 Sunny 12 -11.3 2 -16.8 64 64 NW 7 11 30.8 1043 10 16.0934 N/A
7:58 pm 19:58 Sunny 14 -9.9 4 -15.5 64 64 NW 10 17 30.77 1042 10 16.0934 N/A
8:58 pm 20:58 Sunny 16 -9 7 -13.9 68 68 NW 7 11 30.75 1041 10 16.0934 N/A
9:58 pm 21:58 Sunny 17 -8.4 7 -14.1 64 64 WNW 3 6 30.71 1040 10 16.0934 N/A
11:58 pm 23:58 Clear 12 -11 7 -13.9 79 79 SSW 5 7 30.73 1041 10 16.0934 N/A

Powered by AerisWeather